Wetterdaten: Montag, 21.12.2015
Datum Zeit Auen-Temp. Temp gefhlt Luftfeuchte Luftdruck Regen Wind Richtung Richtung Taupunkt Windben
21.12.2015 00:00 1,9 C 1,6 C 86 % 1025,8 hPa 0,0 mm 0,0 km/h (0 Bft) NO 45 -0,2 C 0,0 km/h (0 Bft)
21.12.2015 00:05 2,0 C 1,6 C 86 % 1025,8 hPa 0,0 mm 0,0 km/h (0 Bft) NO 45 -0,1 C 0,0 km/h (0 Bft)
21.12.2015 00:10 1,7 C 1,5 C 86 % 1025,8 hPa 0,0 mm 0,0 km/h (0 Bft) NW 315 -0,4 C 0,0 km/h (0 Bft)
21.12.2015 00:15 1,8 C 1,5 C 86 % 1026,0 hPa 0,0 mm 0,0 km/h (0 Bft) N-NO 22 -0,3 C 0,0 km/h (0 Bft)
21.12.2015 00:20 2,0 C 1,7 C 82 % 1026,0 hPa 0,0 mm 0,0 km/h (0 Bft) SO 135 -0,7 C 0,0 km/h (0 Bft)
21.12.2015 00:25 1,9 C 1,7 C 87 % 1026,0 hPa 0,0 mm 0,3 km/h (0 Bft) SW 225 -0,0 C 0,0 km/h (0 Bft)
21.12.2015 00:30 2,5 C 2,3 C 82 % 1026,0 hPa 0,0 mm 1,0 km/h (0 Bft) S-SO 157 -0,3 C 11,4 km/h (2 Bft)
21.12.2015 00:35 2,9 C 2,8 C 83 % 1025,8 hPa 0,0 mm 1,3 km/h (1 Bft) S 180 0,3 C 2,8 km/h (1 Bft)
21.12.2015 00:40 2,3 C 2,4 C 86 % 1025,8 hPa 0,0 mm 0,5 km/h (0 Bft) S-SO 157 0,2 C 0,0 km/h (0 Bft)
21.12.2015 00:45 2,2 C 2,2 C 86 % 1025,8 hPa 0,0 mm 0,3 km/h (0 Bft) S-SO 157 0,1 C 4,1 km/h (1 Bft)
21.12.2015 00:50 3,6 C 3,6 C 82 % 1025,8 hPa 0,0 mm 2,6 km/h (1 Bft) W-SW 247 0,8 C 8,8 km/h (2 Bft)
21.12.2015 00:55 4,1 C 4,1 C 81 % 1026,0 hPa 0,0 mm 3,1 km/h (1 Bft) S 180 1,1 C 0,0 km/h (0 Bft)
21.12.2015 01:00 2,8 C 3,5 C 84 % 1026,0 hPa 0,0 mm 1,3 km/h (1 Bft) SO 135 0,4 C 0,0 km/h (0 Bft)
21.12.2015 01:05 3,8 C 3,9 C 80 % 1026,0 hPa 0,0 mm 1,6 km/h (1 Bft) S-SW 202 0,7 C 4,1 km/h (1 Bft)
21.12.2015 01:10 4,4 C 4,5 C 79 % 1026,0 hPa 0,0 mm 3,6 km/h (1 Bft) SW 225 1,1 C 6,5 km/h (2 Bft)
21.12.2015 01:15 4,7 C 4,6 C 79 % 1026,0 hPa 0,0 mm 5,4 km/h (1 Bft) SW 225 1,4 C 11,4 km/h (2 Bft)
21.12.2015 01:20 4,7 C 4,4 C 79 % 1026,0 hPa 0,0 mm 8,5 km/h (2 Bft) S 180 1,4 C 18,1 km/h (3 Bft)
21.12.2015 01:25 4,8 C 4,4 C 78 % 1026,0 hPa 0,0 mm 10,1 km/h (2 Bft) SW 225 1,3 C 14,0 km/h (3 Bft)
21.12.2015 01:30 4,9 C 4,7 C 76 % 1026,0 hPa 0,0 mm 9,8 km/h (2 Bft) S 180 1,0 C 12,7 km/h (3 Bft)
21.12.2015 01:35 5,1 C 5,1 C 76 % 1025,9 hPa 0,0 mm 10,4 km/h (2 Bft) S 180 1,2 C 13,7 km/h (3 Bft)
21.12.2015 01:40 6,0 C 5,9 C 73 % 1025,9 hPa 0,0 mm 13,2 km/h (3 Bft) SW 225 1,5 C 18,4 km/h (3 Bft)
21.12.2015 01:45 6,7 C 6,3 C 72 % 1025,9 hPa 0,0 mm 12,9 km/h (3 Bft) W-SW 247 2,0 C 12,9 km/h (3 Bft)
21.12.2015 01:50 7,4 C 7,0 C 70 % 1025,9 hPa 0,0 mm 11,4 km/h (2 Bft) SW 225 2,3 C 9,3 km/h (2 Bft)
21.12.2015 01:55 7,4 C 7,2 C 69 % 1026,1 hPa 0,0 mm 9,6 km/h (2 Bft) W-SW 247 2,1 C 10,6 km/h (2 Bft)
21.12.2015 02:00 7,7 C 7,4 C 67 % 1026,1 hPa 0,0 mm 9,8 km/h (2 Bft) SW 225 2,0 C 22,0 km/h (4 Bft)
21.12.2015 02:05 7,3 C 7,1 C 67 % 1026,1 hPa 0,0 mm 9,6 km/h (2 Bft) SW 225 1,6 C 11,1 km/h (2 Bft)
21.12.2015 02:10 7,0 C 7,3 C 67 % 1026,1 hPa 0,0 mm 6,2 km/h (2 Bft) SW 225 1,3 C 4,9 km/h (1 Bft)
21.12.2015 02:15 6,3 C 7,3 C 67 % 1026,2 hPa 0,0 mm 5,2 km/h (1 Bft) SW 225 0,6 C 6,0 km/h (2 Bft)
21.12.2015 02:20 6,2 C 6,9 C 69 % 1026,2 hPa 0,0 mm 4,4 km/h (1 Bft) W-SW 247 0,9 C 9,3 km/h (2 Bft)
21.12.2015 02:25 5,5 C 6,8 C 68 % 1026,2 hPa 0,0 mm 4,7 km/h (1 Bft) W-SW 247 0,1 C 3,9 km/h (1 Bft)
21.12.2015 02:30 4,0 C 6,0 C 70 % 1026,2 hPa 0,0 mm 5,2 km/h (1 Bft) SW 225 -1,0 C 0,0 km/h (0 Bft)
21.12.2015 02:35 3,0 C 5,3 C 70 % 1026,3 hPa 0,0 mm 2,6 km/h (1 Bft) S-SO 157 -1,9 C 0,0 km/h (0 Bft)
21.12.2015 02:40 2,6 C 3,5 C 73 % 1026,3 hPa 0,0 mm 0,0 km/h (0 Bft) O-NO 67 -1,7 C 0,0 km/h (0 Bft)
21.12.2015 02:45 2,5 C 2,8 C 74 % 1026,3 hPa 0,0 mm 0,0 km/h (0 Bft) NO 45 -1,7 C 0,0 km/h (0 Bft)
21.12.2015 02:50 2,4 C 2,3 C 75 % 1026,3 hPa 0,0 mm 0,0 km/h (0 Bft) O-NO 67 -1,6 C 0,0 km/h (0 Bft)
21.12.2015 02:55 2,1 C 2,0 C 75 % 1026,2 hPa 0,0 mm 0,5 km/h (0 Bft) W 270 -1,9 C 8,5 km/h (2 Bft)
21.12.2015 03:00 1,6 C 1,6 C 76 % 1026,2 hPa 0,0 mm 0,8 km/h (0 Bft) S 180 -2,2 C 5,4 km/h (1 Bft)
21.12.2015 03:05 1,5 C 1,5 C 77 % 1026,2 hPa 0,0 mm 1,0 km/h (0 Bft) O-SO 112 -2,1 C 0,0 km/h (0 Bft)
21.12.2015 03:10 1,4 C 1,6 C 78 % 1026,2 hPa 0,0 mm 0,8 km/h (0 Bft) NO 45 -2,0 C 0,0 km/h (0 Bft)
21.12.2015 03:15 1,3 C 1,4 C 78 % 1026,2 hPa 0,0 mm 0,5 km/h (0 Bft) S 180 -2,1 C 7,0 km/h (2 Bft)
21.12.2015 03:20 1,5 C 1,6 C 77 % 1026,2 hPa 0,0 mm 0,8 km/h (0 Bft) W-SW 247 -2,1 C 4,7 km/h (1 Bft)
21.12.2015 03:25 1,7 C 2,1 C 80 % 1026,2 hPa 0,0 mm 1,6 km/h (1 Bft) SW 225 -1,4 C 7,8 km/h (2 Bft)
21.12.2015 03:30 2,5 C 2,8 C 78 % 1026,2 hPa 0,0 mm 2,3 km/h (1 Bft) W-SW 247 -0,9 C 6,5 km/h (2 Bft)
21.12.2015 03:35 3,0 C 3,4 C 79 % 1025,8 hPa 0,0 mm 3,6 km/h (1 Bft) S-SW 202 -0,3 C 4,4 km/h (1 Bft)
21.12.2015 03:40 3,3 C 3,6 C 81 % 1025,8 hPa 0,0 mm 2,8 km/h (1 Bft) O-SO 112 0,4 C 0,0 km/h (0 Bft)
21.12.2015 03:45 2,5 C 3,4 C 81 % 1025,8 hPa 0,0 mm 1,6 km/h (1 Bft) S 180 -0,4 C 0,0 km/h (0 Bft)
21.12.2015 03:50 2,2 C 2,9 C 81 % 1025,8 hPa 0,0 mm 0,3 km/h (0 Bft) W-SW 247 -0,7 C 0,0 km/h (0 Bft)
21.12.2015 03:55 2,4 C 2,6 C 81 % 1026,0 hPa 0,0 mm 0,3 km/h (0 Bft) SO 135 -0,5 C 0,0 km/h (0 Bft)
21.12.2015 04:00 2,3 C 2,3 C 82 % 1026,0 hPa 0,0 mm 0,8 km/h (0 Bft) W-SW 247 -0,4 C 0,0 km/h (0 Bft)
21.12.2015 04:05 2,1 C 2,2 C 82 % 1026,0 hPa 0,0 mm 0,8 km/h (0 Bft) O-SO 112 -0,6 C 0,0 km/h (0 Bft)
21.12.2015 04:10 2,1 C 2,1 C 79 % 1026,0 hPa 0,0 mm 0,0 km/h (0 Bft) O-SO 112 -1,2 C 0,0 km/h (0 Bft)
21.12.2015 04:15 2,2 C 2,0 C 83 % 1026,4 hPa 0,0 mm 0,5 km/h (0 Bft) S-SO 157 -0,4 C 8,0 km/h (2 Bft)
21.12.2015 04:20 2,3 C 2,1 C 83 % 1026,4 hPa 0,0 mm 1,3 km/h (1 Bft) NO 45 -0,3 C 0,0 km/h (0 Bft)
21.12.2015 04:25 2,6 C 2,3 C 84 % 1026,4 hPa 0,0 mm 1,6 km/h (1 Bft) S-SO 157 0,2 C 0,0 km/h (0 Bft)
21.12.2015 04:30 2,1 C 2,0 C 83 % 1026,4 hPa 0,0 mm 0,5 km/h (0 Bft) O-NO 67 -0,5 C 0,0 km/h (0 Bft)
21.12.2015 04:35 1,9 C 1,8 C 83 % 1026,3 hPa 0,0 mm 0,3 km/h (0 Bft) SO 135 -0,7 C 0,0 km/h (0 Bft)
21.12.2015 04:40 2,6 C 2,4 C 84 % 1026,3 hPa 0,0 mm 1,6 km/h (1 Bft) S-SO 157 0,2 C 6,5 km/h (2 Bft)
21.12.2015 04:45 2,8 C 2,7 C 84 % 1026,3 hPa 0,0 mm 2,1 km/h (1 Bft) S-SO 157 0,4 C 0,0 km/h (0 Bft)
21.12.2015 04:50 3,3 C 3,3 C 79 % 1026,3 hPa 0,0 mm 2,8 km/h (1 Bft) SO 135 0,0 C 3,6 km/h (1 Bft)
21.12.2015 04:55 2,5 C 3,1 C 82 % 1026,3 hPa 0,0 mm 1,8 km/h (1 Bft) SO 135 -0,3 C 2,8 km/h (1 Bft)
21.12.2015 05:00 2,5 C 3,0 C 83 % 1026,3 hPa 0,0 mm 1,0 km/h (0 Bft) O 90 -0,1 C 0,0 km/h (0 Bft)
21.12.2015 05:05 2,3 C 2,7 C 82 % 1026,3 hPa 0,0 mm 0,8 km/h (0 Bft) O 90 -0,4 C 0,0 km/h (0 Bft)
21.12.2015 05:10 2,3 C 2,5 C 79 % 1026,3 hPa 0,0 mm 0,0 km/h (0 Bft) O-SO 112 -1,0 C 0,0 km/h (0 Bft)
21.12.2015 05:15 2,2 C 2,4 C 82 % 1026,7 hPa 0,0 mm 0,0 km/h (0 Bft) O 90 -0,5 C 0,0 km/h (0 Bft)
21.12.2015 05:20 2,2 C 2,2 C 83 % 1026,7 hPa 0,0 mm 0,3 km/h (0 Bft) NW 315 -0,4 C 6,2 km/h (2 Bft)
21.12.2015 05:25 2,2 C 2,1 C 83 % 1026,7 hPa 0,0 mm 0,3 km/h (0 Bft) NW 315 -0,4 C 0,0 km/h (0 Bft)
21.12.2015 05:30 2,3 C 2,3 C 80 % 1026,7 hPa 0,0 mm 0,8 km/h (0 Bft) SO 135 -0,8 C 2,6 km/h (1 Bft)
21.12.2015 05:35 2,6 C 2,5 C 84 % 1026,6 hPa 0,0 mm 0,3 km/h (0 Bft) O-SO 112 0,2 C 0,0 km/h (0 Bft)
21.12.2015 05:41 2,1 C 2,2 C 83 % 1026,6 hPa 0,0 mm 0,3 km/h (0 Bft) N 360 -0,5 C 0,0 km/h (0 Bft)
21.12.2015 05:45 2,4 C 2,3 C 84 % 1026,6 hPa 0,0 mm 1,3 km/h (1 Bft) O-SO 112 -0,0 C 0,0 km/h (0 Bft)
21.12.2015 05:50 2,2 C 2,5 C 84 % 1026,6 hPa 0,0 mm 1,6 km/h (1 Bft) N-NO 22 -0,2 C 2,8 km/h (1 Bft)
21.12.2015 05:55 2,2 C 2,4 C 80 % 1026,8 hPa 0,0 mm 0,8 km/h (0 Bft) S-SO 157 -0,9 C 5,7 km/h (1 Bft)
21.12.2015 06:00 2,9 C 2,9 C 85 % 1026,8 hPa 0,0 mm 0,8 km/h (0 Bft) NW 315 0,6 C 0,0 km/h (0 Bft)
21.12.2015 06:05 2,6 C 2,8 C 84 % 1026,8 hPa 0,0 mm 0,5 km/h (0 Bft) NO 45 0,2 C 0,0 km/h (0 Bft)
21.12.2015 06:10 2,4 C 2,6 C 84 % 1026,8 hPa 0,0 mm 0,5 km/h (0 Bft) O 90 -0,0 C 3,1 km/h (1 Bft)
21.12.2015 06:16 2,4 C 2,5 C 84 % 1026,8 hPa 0,0 mm 0,8 km/h (0 Bft) O-NO 67 -0,0 C 0,0 km/h (0 Bft)
21.12.2015 06:20 2,6 C 2,6 C 84 % 1026,8 hPa 0,0 mm 0,5 km/h (0 Bft) NW 315 0,2 C 0,0 km/h (0 Bft)
21.12.2015 06:25 2,4 C 2,8 C 84 % 1026,8 hPa 0,0 mm 0,3 km/h (0 Bft) N-NW 337 -0,0 C 0,0 km/h (0 Bft)
21.12.2015 06:30 2,3 C 2,7 C 84 % 1026,8 hPa 0,0 mm 0,0 km/h (0 Bft) O-SO 112 -0,1 C 0,0 km/h (0 Bft)
21.12.2015 06:35 2,4 C 2,6 C 85 % 1027,0 hPa 0,0 mm 0,0 km/h (0 Bft) NO 45 0,1 C 0,0 km/h (0 Bft)
21.12.2015 06:40 2,4 C 2,5 C 85 % 1027,0 hPa 0,0 mm 0,0 km/h (0 Bft) O-NO 67 0,1 C 0,0 km/h (0 Bft)
21.12.2015 06:45 2,4 C 2,6 C 85 % 1027,0 hPa 0,0 mm 0,0 km/h (0 Bft) N-NO 22 0,1 C 0,0 km/h (0 Bft)
21.12.2015 06:50 2,4 C 2,5 C 85 % 1027,0 hPa 0,0 mm 0,0 km/h (0 Bft) O-NO 67 0,1 C 0,0 km/h (0 Bft)
21.12.2015 06:56 2,7 C 2,7 C 85 % 1027,1 hPa 0,0 mm 0,3 km/h (0 Bft) NO 45 0,4 C 0,0 km/h (0 Bft)
21.12.2015 07:00 3,6 C 3,8 C 81 % 1027,1 hPa 0,0 mm 2,3 km/h (1 Bft) W-SW 247 0,7 C 7,3 km/h (2 Bft)
21.12.2015 07:05 3,6 C 4,7 C 85 % 1027,1 hPa 0,0 mm 2,8 km/h (1 Bft) W-SW 247 1,3 C 0,0 km/h (0 Bft)
21.12.2015 07:10 3,5 C 5,1 C 84 % 1027,1 hPa 0,0 mm 1,6 km/h (1 Bft) W 270 1,1 C 0,0 km/h (0 Bft)
21.12.2015 07:15 3,7 C 5,1 C 81 % 1027,0 hPa 0,0 mm 0,8 km/h (0 Bft) W 270 0,7 C 2,6 km/h (1 Bft)
21.12.2015 07:20 4,0 C 5,6 C 80 % 1027,0 hPa 0,0 mm 0,5 km/h (0 Bft) W 270 0,9 C 0,0 km/h (0 Bft)
21.12.2015 07:25 4,1 C 5,8 C 81 % 1027,0 hPa 0,0 mm 0,3 km/h (0 Bft) N-NW 337 1,1 C 0,0 km/h (0 Bft)
21.12.2015 07:30 4,4 C 5,7 C 81 % 1027,0 hPa 0,0 mm 0,0 km/h (0 Bft) O-SO 112 1,4 C 0,0 km/h (0 Bft)
21.12.2015 07:35 4,8 C 5,9 C 81 % 1027,1 hPa 0,0 mm 0,0 km/h (0 Bft) W 270 1,8 C 0,0 km/h (0 Bft)
21.12.2015 07:40 4,7 C 5,9 C 84 % 1027,1 hPa 0,0 mm 0,0 km/h (0 Bft) O-NO 67 2,2 C 0,0 km/h (0 Bft)
21.12.2015 07:45 5,0 C 5,8 C 84 % 1027,1 hPa 0,0 mm 0,0 km/h (0 Bft) NO 45 2,5 C 0,0 km/h (0 Bft)
21.12.2015 07:50 5,4 C 5,9 C 84 % 1027,1 hPa 0,0 mm 0,0 km/h (0 Bft) S 180 2,9 C 0,0 km/h (0 Bft)
21.12.2015 07:55 5,7 C 6,2 C 84 % 1027,1 hPa 0,0 mm 1,3 km/h (1 Bft) NW 315 3,2 C 2,6 km/h (1 Bft)
21.12.2015 08:00 4,1 C 6,0 C 82 % 1027,1 hPa 0,0 mm 2,1 km/h (1 Bft) S-SW 202 1,3 C 5,7 km/h (1 Bft)
21.12.2015 08:05 5,2 C 6,1 C 83 % 1027,1 hPa 0,0 mm 1,8 km/h (1 Bft) N-NW 337 2,6 C 2,6 km/h (1 Bft)
21.12.2015 08:10 4,1 C 5,9 C 82 % 1027,1 hPa 0,0 mm 1,6 km/h (1 Bft) N-NW 337 1,3 C 0,0 km/h (0 Bft)
21.12.2015 08:15 4,1 C 5,6 C 82 % 1027,4 hPa 0,0 mm 0,8 km/h (0 Bft) W-SW 247 1,3 C 4,7 km/h (1 Bft)
21.12.2015 08:20 4,6 C 6,0 C 79 % 1027,4 hPa 0,0 mm 2,1 km/h (1 Bft) SW 225 1,3 C 6,5 km/h (2 Bft)
21.12.2015 08:25 4,9 C 6,5 C 80 % 1027,4 hPa 0,0 mm 2,8 km/h (1 Bft) NW 315 1,7 C 5,2 km/h (1 Bft)
21.12.2015 08:31 4,9 C 6,6 C 80 % 1027,4 hPa 0,0 mm 1,6 km/h (1 Bft) S 180 1,7 C 2,6 km/h (1 Bft)
21.12.2015 08:35 5,0 C 6,6 C 79 % 1027,3 hPa 0,0 mm 0,5 km/h (0 Bft) W-SW 247 1,7 C 0,0 km/h (0 Bft)
21.12.2015 08:40 5,1 C 6,7 C 79 % 1027,3 hPa 0,0 mm 0,5 km/h (0 Bft) SO 135 1,8 C 0,0 km/h (0 Bft)
21.12.2015 08:45 5,2 C 6,7 C 83 % 1027,3 hPa 0,0 mm 0,0 km/h (0 Bft) SO 135 2,6 C 0,0 km/h (0 Bft)
21.12.2015 08:50 5,3 C 6,6 C 79 % 1027,3 hPa 0,0 mm 0,0 km/h (0 Bft) SO 135 2,0 C 0,0 km/h (0 Bft)
21.12.2015 08:55 5,4 C 6,8 C 83 % 1027,5 hPa 0,0 mm 0,5 km/h (0 Bft) W-SW 247 2,7 C 4,1 km/h (1 Bft)
21.12.2015 09:01 7,0 C 7,6 C 80 % 1027,5 hPa 0,0 mm 3,9 km/h (1 Bft) W-SW 247 3,8 C 6,2 km/h (2 Bft)
21.12.2015 09:05 7,8 C 8,2 C 82 % 1027,5 hPa 0,0 mm 6,0 km/h (2 Bft) W-SW 247 4,9 C 6,7 km/h (2 Bft)
21.12.2015 09:10 8,1 C 8,8 C 80 % 1027,5 hPa 0,0 mm 5,2 km/h (1 Bft) SW 225 4,9 C 6,2 km/h (2 Bft)
21.12.2015 09:16 8,3 C 9,0 C 79 % 1027,5 hPa 0,0 mm 4,9 km/h (1 Bft) W-SW 247 4,9 C 3,9 km/h (1 Bft)
21.12.2015 09:20 8,7 C 9,4 C 78 % 1027,5 hPa 0,0 mm 5,4 km/h (1 Bft) W-SW 247 5,1 C 5,7 km/h (1 Bft)
21.12.2015 09:25 8,9 C 9,6 C 76 % 1027,5 hPa 0,0 mm 6,2 km/h (2 Bft) W-SW 247 4,9 C 10,4 km/h (2 Bft)
21.12.2015 09:30 9,3 C 9,8 C 75 % 1027,5 hPa 0,0 mm 6,5 km/h (2 Bft) W 270 5,1 C 3,4 km/h (1 Bft)
21.12.2015 09:35 9,4 C 10,0 C 73 % 1027,9 hPa 0,0 mm 5,7 km/h (1 Bft) W 270 4,8 C 7,3 km/h (2 Bft)
21.12.2015 09:40 9,5 C 10,1 C 72 % 1027,9 hPa 0,0 mm 5,4 km/h (1 Bft) SW 225 4,7 C 10,6 km/h (2 Bft)
21.12.2015 09:45 9,6 C 10,2 C 70 % 1027,9 hPa 0,0 mm 6,7 km/h (2 Bft) S-SW 202 4,4 C 8,5 km/h (2 Bft)
21.12.2015 09:50 9,6 C 10,1 C 69 % 1027,9 hPa 0,0 mm 7,5 km/h (2 Bft) SW 225 4,2 C 7,5 km/h (2 Bft)
21.12.2015 09:55 9,6 C 10,2 C 69 % 1027,8 hPa 0,0 mm 7,3 km/h (2 Bft) W-SW 247 4,2 C 8,5 km/h (2 Bft)
21.12.2015 10:00 9,5 C 10,1 C 68 % 1027,8 hPa 0,0 mm 6,2 km/h (2 Bft) W 270 3,9 C 4,7 km/h (1 Bft)
21.12.2015 10:05 9,6 C 10,1 C 69 % 1027,8 hPa 0,0 mm 5,4 km/h (1 Bft) W-SW 247 4,2 C 9,3 km/h (2 Bft)
21.12.2015 10:10 9,7 C 10,2 C 68 % 1027,8 hPa 0,0 mm 5,2 km/h (1 Bft) W-SW 247 4,1 C 8,3 km/h (2 Bft)
21.12.2015 10:15 9,9 C 10,4 C 68 % 1028,1 hPa 0,0 mm 5,4 km/h (1 Bft) SW 225 4,3 C 6,0 km/h (2 Bft)
21.12.2015 10:20 9,9 C 10,4 C 68 % 1028,1 hPa 0,0 mm 4,7 km/h (1 Bft) W-SW 247 4,3 C 3,1 km/h (1 Bft)
21.12.2015 10:25 9,9 C 10,5 C 68 % 1028,1 hPa 0,0 mm 3,6 km/h (1 Bft) W-SW 247 4,3 C 5,2 km/h (1 Bft)
21.12.2015 10:30 9,9 C 10,6 C 68 % 1028,1 hPa 0,0 mm 2,1 km/h (1 Bft) W-SW 247 4,3 C 3,6 km/h (1 Bft)
21.12.2015 10:35 10,0 C 10,6 C 68 % 1028,2 hPa 0,0 mm 1,3 km/h (1 Bft) W 270 4,4 C 3,1 km/h (1 Bft)
21.12.2015 10:40 10,0 C 10,8 C 68 % 1028,2 hPa 0,0 mm 2,1 km/h (1 Bft) W 270 4,4 C 0,0 km/h (0 Bft)
21.12.2015 10:45 10,1 C 10,8 C 68 % 1028,2 hPa 0,0 mm 3,6 km/h (1 Bft) W 270 4,5 C 10,4 km/h (2 Bft)
21.12.2015 10:50 10,2 C 10,9 C 68 % 1028,2 hPa 0,0 mm 5,4 km/h (1 Bft) W-SW 247 4,6 C 4,9 km/h (1 Bft)
21.12.2015 10:55 10,3 C 10,9 C 68 % 1028,4 hPa 0,0 mm 7,8 km/h (2 Bft) NW 315 4,7 C 7,3 km/h (2 Bft)
21.12.2015 11:00 10,3 C 10,8 C 68 % 1028,4 hPa 0,0 mm 9,1 km/h (2 Bft) W-NW 292 4,7 C 30,3 km/h (5 Bft)
21.12.2015 11:05 10,3 C 10,7 C 68 % 1028,4 hPa 0,0 mm 9,1 km/h (2 Bft) W-NW 292 4,7 C 12,2 km/h (2 Bft)
21.12.2015 11:10 10,2 C 10,5 C 68 % 1028,4 hPa 0,0 mm 8,8 km/h (2 Bft) W 270 4,6 C 8,0 km/h (2 Bft)
21.12.2015 11:15 10,1 C 10,6 C 68 % 1028,7 hPa 0,0 mm 8,5 km/h (2 Bft) NW 315 4,5 C 8,5 km/h (2 Bft)
21.12.2015 11:20 10,0 C 10,2 C 69 % 1028,7 hPa 0,0 mm 9,3 km/h (2 Bft) W-NW 292 4,6 C 20,2 km/h (4 Bft)
21.12.2015 11:25 9,9 C 9,9 C 69 % 1028,7 hPa 0,0 mm 10,1 km/h (2 Bft) NW 315 4,5 C 11,7 km/h (2 Bft)
21.12.2015 11:30 9,8 C 9,9 C 70 % 1028,7 hPa 0,0 mm 9,1 km/h (2 Bft) W 270 4,6 C 13,2 km/h (3 Bft)
21.12.2015 11:35 9,8 C 9,8 C 70 % 1028,9 hPa 0,0 mm 8,8 km/h (2 Bft) W 270 4,6 C 11,1 km/h (2 Bft)
21.12.2015 11:40 9,7 C 9,8 C 71 % 1028,9 hPa 0,0 mm 8,5 km/h (2 Bft) NW 315 4,7 C 10,6 km/h (2 Bft)
21.12.2015 11:45 9,7 C 9,8 C 71 % 1028,9 hPa 0,0 mm 8,5 km/h (2 Bft) N-NW 337 4,7 C 7,5 km/h (2 Bft)
21.12.2015 11:50 9,7 C 9,6 C 71 % 1028,9 hPa 0,0 mm 11,4 km/h (2 Bft) N-NW 337 4,7 C 15,0 km/h (3 Bft)
21.12.2015 11:55 9,6 C 9,5 C 72 % 1029,3 hPa 0,0 mm 13,2 km/h (3 Bft) W-NW 292 4,8 C 13,5 km/h (3 Bft)
21.12.2015 12:00 9,4 C 9,3 C 72 % 1029,3 hPa 0,0 mm 13,2 km/h (3 Bft) W-SW 247 4,6 C 9,8 km/h (2 Bft)
21.12.2015 12:05 9,4 C 9,3 C 72 % 1029,3 hPa 0,0 mm 10,4 km/h (2 Bft) NW 315 4,6 C 7,0 km/h (2 Bft)
21.12.2015 12:10 9,3 C 9,3 C 73 % 1029,3 hPa 0,0 mm 8,8 km/h (2 Bft) W-SW 247 4,7 C 15,5 km/h (3 Bft)
21.12.2015 12:15 9,2 C 9,2 C 73 % 1029,4 hPa 0,0 mm 9,3 km/h (2 Bft) W-SW 247 4,6 C 7,3 km/h (2 Bft)
21.12.2015 12:20 9,1 C 9,0 C 74 % 1029,4 hPa 0,0 mm 9,8 km/h (2 Bft) SW 225 4,7 C 7,0 km/h (2 Bft)
21.12.2015 12:25 8,9 C 8,9 C 75 % 1029,4 hPa 0,0 mm 8,8 km/h (2 Bft) NW 315 4,7 C 21,2 km/h (4 Bft)
21.12.2015 12:30 8,9 C 8,8 C 75 % 1029,4 hPa 0,0 mm 9,3 km/h (2 Bft) W-SW 247 4,7 C 9,1 km/h (2 Bft)
21.12.2015 12:35 8,8 C 8,6 C 75 % 1029,5 hPa 0,0 mm 10,1 km/h (2 Bft) W-NW 292 4,6 C 12,9 km/h (3 Bft)
21.12.2015 12:40 8,8 C 8,6 C 76 % 1029,5 hPa 0,0 mm 9,8 km/h (2 Bft) W 270 4,8 C 9,8 km/h (2 Bft)
21.12.2015 12:45 8,6 C 8,5 C 77 % 1029,5 hPa 0,0 mm 12,4 km/h (3 Bft) W-SW 247 4,8 C 27,4 km/h (4 Bft)
21.12.2015 12:50 8,4 C 8,2 C 78 % 1029,5 hPa 0,0 mm 12,4 km/h (3 Bft) W-SW 247 4,8 C 15,3 km/h (3 Bft)
21.12.2015 12:55 8,0 C 7,7 C 77 % 1029,8 hPa 0,0 mm 11,9 km/h (2 Bft) N-NW 337 4,2 C 23,8 km/h (4 Bft)
21.12.2015 12:57 8,0 C 7,7 C 77 % 1029,8 hPa 0,0 mm 11,9 km/h (2 Bft) N-NW 337 4,2 C 23,8 km/h (4 Bft)
21.12.2015 13:00 7,0 C 6,6 C 78 % 1029,8 hPa 0,0 mm 12,2 km/h (2 Bft) NW 315 3,4 C 9,3 km/h (2 Bft)
21.12.2015 13:05 6,8 C 6,4 C 78 % 1029,8 hPa 0,0 mm 11,7 km/h (2 Bft) NW 315 3,2 C 7,3 km/h (2 Bft)
21.12.2015 13:10 6,6 C 6,4 C 79 % 1029,8 hPa 0,0 mm 7,0 km/h (2 Bft) W 270 3,2 C 10,6 km/h (2 Bft)
21.12.2015 13:15 6,5 C 6,4 C 79 % 1029,6 hPa 0,0 mm 5,2 km/h (1 Bft) W-NW 292 3,1 C 0,0 km/h (0 Bft)
21.12.2015 13:20 6,5 C 6,4 C 79 % 1029,6 hPa 0,0 mm 4,4 km/h (1 Bft) W 270 3,1 C 10,4 km/h (2 Bft)
21.12.2015 13:25 6,5 C 6,4 C 80 % 1029,6 hPa 0,0 mm 5,2 km/h (1 Bft) W 270 3,3 C 5,2 km/h (1 Bft)
21.12.2015 13:30 6,6 C 6,3 C 81 % 1029,6 hPa 0,0 mm 7,8 km/h (2 Bft) NW 315 3,6 C 13,2 km/h (3 Bft)
21.12.2015 13:36 6,6 C 6,3 C 81 % 1029,7 hPa 0,0 mm 7,3 km/h (2 Bft) W-SW 247 3,6 C 8,0 km/h (2 Bft)
21.12.2015 13:40 6,5 C 6,3 C 81 % 1029,7 hPa 0,0 mm 6,7 km/h (2 Bft) W 270 3,5 C 6,0 km/h (2 Bft)
21.12.2015 13:45 6,4 C 6,4 C 81 % 1029,7 hPa 0,0 mm 5,7 km/h (1 Bft) NW 315 3,4 C 5,7 km/h (1 Bft)
21.12.2015 13:50 6,5 C 6,4 C 82 % 1029,7 hPa 0,0 mm 5,7 km/h (1 Bft) SW 225 3,7 C 6,0 km/h (2 Bft)
21.12.2015 13:55 6,5 C 6,5 C 82 % 1029,7 hPa 0,0 mm 5,4 km/h (1 Bft) W-SW 247 3,7 C 5,7 km/h (1 Bft)
21.12.2015 14:00 6,5 C 6,6 C 82 % 1029,7 hPa 0,0 mm 4,7 km/h (1 Bft) W 270 3,7 C 6,2 km/h (2 Bft)
21.12.2015 14:05 6,6 C 6,5 C 82 % 1029,7 hPa 0,0 mm 6,5 km/h (2 Bft) W 270 3,8 C 18,1 km/h (3 Bft)
21.12.2015 14:10 6,7 C 6,3 C 83 % 1029,7 hPa 0,0 mm 10,9 km/h (2 Bft) W 270 4,0 C 17,3 km/h (3 Bft)
21.12.2015 14:15 6,8 C 6,3 C 83 % 1030,0 hPa 0,0 mm 12,2 km/h (2 Bft) W-SW 247 4,1 C 15,8 km/h (3 Bft)
21.12.2015 14:20 6,9 C 6,5 C 82 % 1030,0 hPa 0,0 mm 11,4 km/h (2 Bft) W 270 4,0 C 12,4 km/h (3 Bft)
21.12.2015 14:25 7,0 C 6,6 C 82 % 1030,0 hPa 0,0 mm 10,9 km/h (2 Bft) W-NW 292 4,1 C 15,5 km/h (3 Bft)
21.12.2015 14:30 6,9 C 6,8 C 79 % 1030,0 hPa 0,0 mm 9,6 km/h (2 Bft) W-SW 247 3,5 C 11,9 km/h (2 Bft)
21.12.2015 14:35 7,0 C 6,9 C 81 % 1029,8 hPa 0,0 mm 8,3 km/h (2 Bft) W 270 4,0 C 9,3 km/h (2 Bft)
21.12.2015 14:40 7,0 C 6,9 C 80 % 1029,8 hPa 0,0 mm 7,5 km/h (2 Bft) W 270 3,8 C 11,1 km/h (2 Bft)
21.12.2015 14:45 7,0 C 6,9 C 80 % 1029,8 hPa 0,0 mm 8,0 km/h (2 Bft) W-SW 247 3,8 C 13,2 km/h (3 Bft)
21.12.2015 14:50 7,1 C 6,7 C 79 % 1029,8 hPa 0,0 mm 11,4 km/h (2 Bft) S-SW 202 3,7 C 30,8 km/h (5 Bft)
21.12.2015 14:55 7,1 C 6,8 C 78 % 1029,6 hPa 0,0 mm 11,7 km/h (2 Bft) W 270 3,5 C 11,7 km/h (2 Bft)
21.12.2015 15:00 7,2 C 6,9 C 78 % 1029,6 hPa 0,0 mm 10,1 km/h (2 Bft) W-SW 247 3,6 C 11,1 km/h (2 Bft)
21.12.2015 15:05 7,2 C 6,8 C 77 % 1029,6 hPa 0,0 mm 11,7 km/h (2 Bft) W-NW 292 3,4 C 15,3 km/h (3 Bft)
21.12.2015 15:10 7,2 C 6,9 C 77 % 1029,6 hPa 0,0 mm 12,9 km/h (3 Bft) W-NW 292 3,4 C 16,6 km/h (3 Bft)
21.12.2015 15:15 7,2 C 6,7 C 76 % 1029,8 hPa 0,0 mm 12,7 km/h (3 Bft) NW 315 3,3 C 8,8 km/h (2 Bft)
21.12.2015 15:20 7,2 C 6,9 C 76 % 1029,8 hPa 0,0 mm 12,9 km/h (3 Bft) W 270 3,3 C 19,4 km/h (3 Bft)
21.12.2015 15:25 7,2 C 6,9 C 76 % 1029,8 hPa 0,0 mm 14,0 km/h (3 Bft) W-NW 292 3,3 C 23,6 km/h (4 Bft)
21.12.2015 15:30 7,2 C 6,8 C 75 % 1029,8 hPa 0,0 mm 16,1 km/h (3 Bft) W 270 3,1 C 14,0 km/h (3 Bft)
21.12.2015 15:35 7,2 C 6,8 C 75 % 1029,8 hPa 0,0 mm 15,0 km/h (3 Bft) W-NW 292 3,1 C 15,8 km/h (3 Bft)
21.12.2015 15:40 7,2 C 6,8 C 75 % 1029,8 hPa 0,0 mm 13,7 km/h (3 Bft) W-NW 292 3,1 C 18,4 km/h (3 Bft)
21.12.2015 15:45 7,1 C 6,7 C 75 % 1029,8 hPa 0,0 mm 14,5 km/h (3 Bft) NW 315 3,0 C 14,8 km/h (3 Bft)
21.12.2015 15:50 7,0 C 6,6 C 75 % 1029,8 hPa 0,0 mm 13,5 km/h (3 Bft) W-SW 247 2,9 C 12,2 km/h (2 Bft)
21.12.2015 15:55 7,0 C 6,6 C 75 % 1029,9 hPa 0,0 mm 12,4 km/h (3 Bft) SW 225 2,9 C 21,5 km/h (4 Bft)
21.12.2015 16:00 7,0 C 6,5 C 75 % 1029,9 hPa 0,0 mm 11,7 km/h (2 Bft) W-SW 247 2,9 C 12,2 km/h (2 Bft)
21.12.2015 16:05 7,0 C 6,6 C 75 % 1029,9 hPa 0,0 mm 10,6 km/h (2 Bft) W-NW 292 2,9 C 16,3 km/h (3 Bft)
21.12.2015 16:10 6,8 C 6,5 C 75 % 1029,9 hPa 0,0 mm 9,1 km/h (2 Bft) W 270 2,7 C 5,2 km/h (1 Bft)
21.12.2015 16:15 6,5 C 6,3 C 75 % 1029,7 hPa 0,0 mm 7,5 km/h (2 Bft) SW 225 2,4 C 4,4 km/h (1 Bft)
21.12.2015 16:20 6,4 C 6,3 C 75 % 1029,7 hPa 0,0 mm 6,0 km/h (2 Bft) W 270 2,3 C 6,7 km/h (2 Bft)
21.12.2015 16:25 6,3 C 6,2 C 76 % 1029,7 hPa 0,0 mm 6,2 km/h (2 Bft) W 270 2,4 C 9,3 km/h (2 Bft)
21.12.2015 16:30 6,2 C 6,1 C 76 % 1029,7 hPa 0,0 mm 6,2 km/h (2 Bft) W 270 2,3 C 8,3 km/h (2 Bft)
21.12.2015 16:35 6,1 C 5,9 C 76 % 1029,7 hPa 0,0 mm 6,7 km/h (2 Bft) W-SW 247 2,2 C 13,7 km/h (3 Bft)
21.12.2015 16:40 5,9 C 5,8 C 77 % 1029,7 hPa 0,0 mm 5,7 km/h (1 Bft) N-NW 337 2,2 C 2,8 km/h (1 Bft)
21.12.2015 16:45 5,8 C 5,8 C 77 % 1029,7 hPa 0,0 mm 4,7 km/h (1 Bft) W-NW 292 2,1 C 3,4 km/h (1 Bft)
21.12.2015 16:50 5,7 C 5,7 C 78 % 1029,7 hPa 0,0 mm 3,6 km/h (1 Bft) W-SW 247 2,2 C 3,6 km/h (1 Bft)
21.12.2015 16:55 5,8 C 5,8 C 78 % 1029,8 hPa 0,0 mm 3,9 km/h (1 Bft) W-NW 292 2,3 C 6,7 km/h (2 Bft)
21.12.2015 17:00 5,9 C 5,8 C 78 % 1029,8 hPa 0,0 mm 4,4 km/h (1 Bft) W 270 2,4 C 4,4 km/h (1 Bft)
21.12.2015 17:05 5,9 C 5,8 C 78 % 1029,8 hPa 0,0 mm 4,9 km/h (1 Bft) W-SW 247 2,4 C 8,8 km/h (2 Bft)
21.12.2015 17:10 5,8 C 5,7 C 78 % 1029,8 hPa 0,0 mm 4,4 km/h (1 Bft) W-SW 247 2,3 C 5,2 km/h (1 Bft)
21.12.2015 17:15 5,7 C 5,6 C 78 % 1029,6 hPa 0,0 mm 4,9 km/h (1 Bft) S-SW 202 2,2 C 6,0 km/h (2 Bft)
21.12.2015 17:20 5,7 C 5,5 C 78 % 1029,6 hPa 0,0 mm 5,4 km/h (1 Bft) W 270 2,2 C 7,0 km/h (2 Bft)
21.12.2015 17:25 5,7 C 5,5 C 78 % 1029,6 hPa 0,0 mm 5,2 km/h (1 Bft) S 180 2,2 C 7,0 km/h (2 Bft)
21.12.2015 17:30 5,7 C 5,4 C 78 % 1029,6 hPa 0,0 mm 5,4 km/h (1 Bft) W-SW 247 2,2 C 6,0 km/h (2 Bft)
21.12.2015 17:35 5,8 C 5,5 C 78 % 1029,5 hPa 0,0 mm 5,7 km/h (1 Bft) SW 225 2,3 C 7,0 km/h (2 Bft)
21.12.2015 17:40 6,1 C 5,6 C 77 % 1029,5 hPa 0,0 mm 7,3 km/h (2 Bft) W-SW 247 2,4 C 5,7 km/h (1 Bft)
21.12.2015 17:45 6,0 C 5,6 C 77 % 1029,5 hPa 0,0 mm 7,3 km/h (2 Bft) W-SW 247 2,3 C 10,4 km/h (2 Bft)
21.12.2015 17:50 6,0 C 5,7 C 77 % 1029,5 hPa 0,0 mm 6,5 km/h (2 Bft) W 270 2,3 C 8,5 km/h (2 Bft)
21.12.2015 17:55 5,9 C 5,6 C 78 % 1029,5 hPa 0,0 mm 6,7 km/h (2 Bft) W-SW 247 2,4 C 5,2 km/h (1 Bft)
21.12.2015 18:00 6,0 C 5,7 C 77 % 1029,5 hPa 0,0 mm 6,2 km/h (2 Bft) S-SW 202 2,3 C 15,3 km/h (3 Bft)
21.12.2015 18:05 6,1 C 5,7 C 77 % 1029,5 hPa 0,0 mm 7,0 km/h (2 Bft) SW 225 2,4 C 12,2 km/h (2 Bft)
21.12.2015 18:10 6,0 C 5,6 C 76 % 1029,5 hPa 0,0 mm 7,5 km/h (2 Bft) SW 225 2,1 C 7,0 km/h (2 Bft)
21.12.2015 18:15 6,1 C 5,7 C 76 % 1029,3 hPa 0,0 mm 8,0 km/h (2 Bft) SW 225 2,2 C 10,6 km/h (2 Bft)
21.12.2015 18:20 6,4 C 5,8 C 76 % 1029,3 hPa 0,0 mm 9,3 km/h (2 Bft) W 270 2,5 C 6,2 km/h (2 Bft)
21.12.2015 18:25 6,1 C 5,7 C 76 % 1029,3 hPa 0,0 mm 8,0 km/h (2 Bft) W-SW 247 2,2 C 3,9 km/h (1 Bft)
21.12.2015 18:30 6,0 C 5,8 C 76 % 1029,3 hPa 0,0 mm 6,5 km/h (2 Bft) SW 225 2,1 C 10,9 km/h (2 Bft)
21.12.2015 18:35 5,9 C 5,8 C 77 % 1029,5 hPa 0,0 mm 5,7 km/h (1 Bft) W-NW 292 2,2 C 6,0 km/h (2 Bft)
21.12.2015 18:40 6,0 C 5,9 C 76 % 1029,5 hPa 0,0 mm 5,2 km/h (1 Bft) W-SW 247 2,1 C 5,7 km/h (1 Bft)
21.12.2015 18:45 5,9 C 5,8 C 77 % 1029,5 hPa 0,0 mm 4,9 km/h (1 Bft) S-SW 202 2,2 C 3,6 km/h (1 Bft)
21.12.2015 18:50 5,8 C 5,7 C 77 % 1029,5 hPa 0,0 mm 3,9 km/h (1 Bft) W-NW 292 2,1 C 3,4 km/h (1 Bft)
21.12.2015 18:55 5,9 C 5,8 C 77 % 1029,9 hPa 0,0 mm 3,1 km/h (1 Bft) W 270 2,2 C 3,6 km/h (1 Bft)
21.12.2015 18:58 5,8 C 5,7 C 77 % 1029,9 hPa 0,0 mm 2,6 km/h (1 Bft) W 270 2,1 C 3,6 km/h (1 Bft)
21.12.2015 19:00 5,8 C 5,7 C 77 % 1029,9 hPa 0,0 mm 2,6 km/h (1 Bft) W 270 2,1 C 3,6 km/h (1 Bft)
21.12.2015 19:05 5,7 C 5,6 C 77 % 1029,9 hPa 0,0 mm 2,1 km/h (1 Bft) W 270 2,0 C 3,6 km/h (1 Bft)
21.12.2015 19:10 5,7 C 5,6 C 77 % 1029,9 hPa 0,0 mm 2,3 km/h (1 Bft) S 180 2,0 C 2,6 km/h (1 Bft)
21.12.2015 19:15 5,7 C 5,6 C 77 % 1030,0 hPa 0,0 mm 2,8 km/h (1 Bft) SW 225 2,0 C 4,9 km/h (1 Bft)
21.12.2015 19:20 5,9 C 5,7 C 77 % 1030,0 hPa 0,0 mm 4,7 km/h (1 Bft) W 270 2,2 C 13,2 km/h (3 Bft)
21.12.2015 19:25 6,0 C 5,8 C 76 % 1030,0 hPa 0,0 mm 5,4 km/h (1 Bft) W-SW 247 2,1 C 7,0 km/h (2 Bft)
21.12.2015 19:30 5,9 C 5,8 C 77 % 1030,0 hPa 0,0 mm 4,9 km/h (1 Bft) SW 225 2,2 C 4,4 km/h (1 Bft)
21.12.2015 19:35 6,0 C 5,9 C 76 % 1030,3 hPa 0,0 mm 5,2 km/h (1 Bft) W-SW 247 2,1 C 8,5 km/h (2 Bft)
21.12.2015 19:40 6,0 C 5,7 C 76 % 1030,3 hPa 0,0 mm 7,0 km/h (2 Bft) S-SO 157 2,1 C 8,5 km/h (2 Bft)
21.12.2015 19:45 6,1 C 5,7 C 76 % 1030,3 hPa 0,0 mm 7,8 km/h (2 Bft) W 270 2,2 C 9,8 km/h (2 Bft)
21.12.2015 19:50 6,2 C 5,7 C 75 % 1030,3 hPa 0,0 mm 8,3 km/h (2 Bft) S 180 2,1 C 8,3 km/h (2 Bft)
21.12.2015 19:55 5,8 C 5,7 C 76 % 1030,5 hPa 0,0 mm 6,2 km/h (2 Bft) S-SO 157 1,9 C 3,1 km/h (1 Bft)
21.12.2015 20:00 5,4 C 5,3 C 76 % 1030,5 hPa 0,0 mm 3,1 km/h (1 Bft) SW 225 1,5 C 10,9 km/h (2 Bft)
21.12.2015 20:05 5,7 C 5,5 C 77 % 1030,5 hPa 0,0 mm 4,1 km/h (1 Bft) S-SO 157 2,0 C 6,2 km/h (2 Bft)
21.12.2015 20:10 5,8 C 5,4 C 77 % 1030,5 hPa 0,0 mm 6,7 km/h (2 Bft) SW 225 2,1 C 13,5 km/h (3 Bft)
21.12.2015 20:15 5,7 C 5,4 C 76 % 1030,5 hPa 0,0 mm 7,5 km/h (2 Bft) S 180 1,8 C 7,8 km/h (2 Bft)
21.12.2015 20:20 5,1 C 5,0 C 76 % 1030,5 hPa 0,0 mm 6,2 km/h (2 Bft) SW 225 1,2 C 10,4 km/h (2 Bft)
21.12.2015 20:25 5,2 C 5,0 C 77 % 1030,5 hPa 0,0 mm 5,7 km/h (1 Bft) SW 225 1,5 C 15,3 km/h (3 Bft)
21.12.2015 20:30 5,1 C 4,8 C 77 % 1030,5 hPa 0,0 mm 7,0 km/h (2 Bft) W-SW 247 1,4 C 6,0 km/h (2 Bft)
21.12.2015 20:35 5,1 C 4,8 C 78 % 1030,5 hPa 0,0 mm 6,7 km/h (2 Bft) W-SW 247 1,6 C 6,2 km/h (2 Bft)
21.12.2015 20:40 5,2 C 5,0 C 78 % 1030,5 hPa 0,0 mm 5,2 km/h (1 Bft) S-SW 202 1,7 C 9,3 km/h (2 Bft)
21.12.2015 20:45 5,1 C 5,0 C 78 % 1030,5 hPa 0,0 mm 3,9 km/h (1 Bft) S-SO 157 1,6 C 7,0 km/h (2 Bft)
21.12.2015 20:51 4,9 C 4,7 C 78 % 1030,5 hPa 0,0 mm 3,4 km/h (1 Bft) S 180 1,4 C 4,7 km/h (1 Bft)
21.12.2015 20:55 4,7 C 4,6 C 78 % 1030,5 hPa 0,0 mm 1,8 km/h (1 Bft) S-SO 157 1,2 C 0,0 km/h (0 Bft)
21.12.2015 21:00 3,6 C 3,6 C 78 % 1030,5 hPa 0,0 mm 0,5 km/h (0 Bft) O 90 0,1 C 0,0 km/h (0 Bft)
21.12.2015 21:05 3,3 C 3,2 C 78 % 1030,5 hPa 0,0 mm 0,0 km/h (0 Bft) SO 135 -0,2 C 0,0 km/h (0 Bft)
21.12.2015 21:10 3,0 C 2,7 C 78 % 1030,5 hPa 0,0 mm 0,0 km/h (0 Bft) N-NO 22 -0,5 C 0,0 km/h (0 Bft)
21.12.2015 21:15 2,8 C 2,5 C 79 % 1030,7 hPa 0,0 mm 0,0 km/h (0 Bft) S 180 -0,5 C 0,0 km/h (0 Bft)
21.12.2015 21:20 2,7 C 2,3 C 79 % 1030,7 hPa 0,0 mm 0,0 km/h (0 Bft) O-NO 67 -0,6 C 0,0 km/h (0 Bft)
21.12.2015 21:25 2,7 C 2,2 C 81 % 1030,7 hPa 0,0 mm 0,3 km/h (0 Bft) O-SO 112 -0,2 C 0,0 km/h (0 Bft)
21.12.2015 21:30 2,1 C 1,8 C 81 % 1030,7 hPa 0,0 mm 0,3 km/h (0 Bft) NO 45 -0,8 C 0,0 km/h (0 Bft)
21.12.2015 21:35 1,8 C 1,5 C 81 % 1030,4 hPa 0,0 mm 0,3 km/h (0 Bft) NO 45 -1,1 C 0,0 km/h (0 Bft)
21.12.2015 21:40 2,6 C 2,2 C 79 % 1030,4 hPa 0,0 mm 0,5 km/h (0 Bft) SO 135 -0,7 C 0,0 km/h (0 Bft)
21.12.2015 21:45 2,5 C 2,1 C 85 % 1030,4 hPa 0,0 mm 0,8 km/h (0 Bft) O-NO 67 0,2 C 0,0 km/h (0 Bft)
21.12.2015 21:50 1,7 C 1,4 C 84 % 1030,4 hPa 0,0 mm 0,0 km/h (0 Bft) N-NO 22 -0,7 C 0,0 km/h (0 Bft)
21.12.2015 21:55 1,6 C 1,3 C 84 % 1030,5 hPa 0,0 mm 0,0 km/h (0 Bft) O 90 -0,8 C 0,0 km/h (0 Bft)
21.12.2015 22:00 1,6 C 1,1 C 84 % 1030,5 hPa 0,0 mm 0,0 km/h (0 Bft) O 90 -0,8 C 0,0 km/h (0 Bft)
21.12.2015 22:05 1,7 C 1,2 C 85 % 1030,5 hPa 0,0 mm 0,0 km/h (0 Bft) SO 135 -0,5 C 0,0 km/h (0 Bft)
21.12.2015 22:10 2,0 C 1,4 C 86 % 1030,5 hPa 0,0 mm 0,0 km/h (0 Bft) N-NO 22 -0,1 C 2,6 km/h (1 Bft)
21.12.2015 22:15 1,7 C 1,2 C 86 % 1030,5 hPa 0,0 mm 0,0 km/h (0 Bft) S-SO 157 -0,4 C 0,0 km/h (0 Bft)
21.12.2015 22:20 1,4 C 1,0 C 86 % 1030,5 hPa 0,0 mm 0,0 km/h (0 Bft) O-SO 112 -0,7 C 0,0 km/h (0 Bft)
21.12.2015 22:25 1,6 C 1,1 C 86 % 1030,5 hPa 0,0 mm 0,0 km/h (0 Bft) O-NO 67 -0,5 C 0,0 km/h (0 Bft)
21.12.2015 22:30 1,1 C 0,8 C 86 % 1030,5 hPa 0,0 mm 0,0 km/h (0 Bft) NW 315 -1,0 C 4,7 km/h (1 Bft)
21.12.2015 22:35 1,1 C 0,8 C 86 % 1031,0 hPa 0,0 mm 0,3 km/h (0 Bft) O-SO 112 -1,0 C 0,0 km/h (0 Bft)
21.12.2015 22:40 1,4 C 1,5 C 82 % 1031,0 hPa 0,0 mm 2,6 km/h (1 Bft) W-SW 247 -1,3 C 12,7 km/h (3 Bft)
21.12.2015 22:45 3,9 C 2,9 C 89 % 1031,0 hPa 0,0 mm 7,3 km/h (2 Bft) SW 225 2,3 C 22,5 km/h (4 Bft)
21.12.2015 22:50 4,4 C 3,5 C 88 % 1031,0 hPa 0,0 mm 9,8 km/h (2 Bft) SW 225 2,6 C 11,7 km/h (2 Bft)
21.12.2015 22:55 4,6 C 3,7 C 88 % 1030,8 hPa 0,0 mm 10,4 km/h (2 Bft) SW 225 2,8 C 18,6 km/h (3 Bft)
21.12.2015 23:00 4,4 C 3,7 C 86 % 1030,8 hPa 0,0 mm 9,6 km/h (2 Bft) W-SW 247 2,3 C 4,4 km/h (1 Bft)
21.12.2015 23:05 4,4 C 3,8 C 86 % 1030,8 hPa 0,0 mm 8,5 km/h (2 Bft) SW 225 2,3 C 11,1 km/h (2 Bft)
21.12.2015 23:10 5,0 C 4,5 C 85 % 1030,8 hPa 0,0 mm 7,5 km/h (2 Bft) W 270 2,7 C 12,7 km/h (3 Bft)
21.12.2015 23:15 5,3 C 4,8 C 85 % 1030,8 hPa 0,0 mm 8,0 km/h (2 Bft) W 270 3,0 C 11,1 km/h (2 Bft)
21.12.2015 23:20 5,2 C 4,9 C 84 % 1030,8 hPa 0,0 mm 7,3 km/h (2 Bft) S 180 2,7 C 10,6 km/h (2 Bft)
21.12.2015 23:25 5,6 C 5,2 C 83 % 1030,8 hPa 0,0 mm 7,5 km/h (2 Bft) W-SW 247 2,9 C 9,6 km/h (2 Bft)
21.12.2015 23:30 5,5 C 5,1 C 82 % 1030,8 hPa 0,0 mm 7,5 km/h (2 Bft) W 270 2,7 C 4,9 km/h (1 Bft)
21.12.2015 23:35 5,3 C 5,1 C 82 % 1031,2 hPa 0,0 mm 6,7 km/h (2 Bft) W-SW 247 2,5 C 14,8 km/h (3 Bft)
21.12.2015 23:40 5,4 C 5,2 C 81 % 1031,2 hPa 0,0 mm 6,7 km/h (2 Bft) W 270 2,4 C 13,2 km/h (3 Bft)
21.12.2015 23:45 5,5 C 5,3 C 81 % 1031,2 hPa 0,0 mm 6,5 km/h (2 Bft) W-SW 247 2,5 C 12,4 km/h (3 Bft)
21.12.2015 23:50 5,5 C 5,2 C 81 % 1031,2 hPa 0,0 mm 7,0 km/h (2 Bft) W 270 2,5 C 8,0 km/h (2 Bft)
21.12.2015 23:55 5,6 C 5,4 C 81 % 1031,3 hPa 0,0 mm 6,2 km/h (2 Bft) W 270 2,6 C 5,2 km/h (1 Bft)
_ Min-Zeit 22:35 22:35 02:15 03:50 - 22:30 - - 03:00 22:35
Minimum _ 1,1 C 0,8 C 67 % 1025,8 hPa - 0,0 km/h (0 Bft) - - -2,2 C 0,0 km/h (0 Bft)
_ Max-Zeit 11:05 10:55 22:45 23:55 23:55 15:30 - - 09:30 14:50
Maximum _ 10,3 C 10,9 C 89 % 1031,3 hPa 0,0 mm 16,1 km/h
W (3 Bft)
- - 5,1 C 30,8 km/h
S-SW (5 Bft)
Durchschnitt _ 5,3 C 5,4 C 78 % 1028,5 hPa #0,0 mm 4,9 km/h (1 Bft) W-SW - 1,8 C 6,6 km/h (2 Bft)